Location: Unspecified
(42.2730°N, 83.7130°W)
Time: 14:05:38
(UTC+00:00)

Cosmos 2221 - Pass Details

Date: 14 December 2025
Orbit: 569 x 590 km, 82.5° (Epoch: 17 January)

Event Time Altitude Azimuth Distance (km) Brightness Sun altitude
Exits shadow 12:17:56 - 338° (NNW) 2,704 5.4 -7.1°
Reaches altitude 10° 12:20:11 10° 326° (NW) 1,878 4.5 -6.7°
Maximum altitude 12:23:35 25° 271° (W) 1,165 3.5 -6.1°
Drops below altitude 10° 12:26:58 10° 215° (SW) 1,867 4.9 -5.6°
Sets 12:29:25 0° 202° (SSW) 2,761 6.0 -5.2°
